• In Russia
  • List of Countries
  • For 7 days
  • Water Temperature
  • Satellite Maps
  • Weather Map
  • Weather Widgets
  • user-avatar
    Login

    Hourly Weather Holoy

    Today, 14 November, Wednesday

    Time Temperature Precipitation Wind Pressure Humidity
    00:00 -23°C° 0 mm 1 mps 604 mmHg 82%
    01:00 -23°C° 0 mm 1 mps 604 mmHg 80%
    02:00 -26°C° 0 mm 2 mps 604 mmHg 78%
    03:00 -26°C° 0 mm 2 mps 604 mmHg 76%
    04:00 -26°C° 0 mm 2 mps 604 mmHg 74%
    05:00 -26°C° 0 mm 2 mps 604 mmHg 73%
    06:00 -26°C° 0 mm 2 mps 604 mmHg 71%
    07:00 -26°C° 0 mm 2 mps 605 mmHg 69%
    08:00 -21°C° 0 mm 1 mps 606 mmHg 65%
    09:00 -19°C° 0 mm 1 mps 607 mmHg 61%
    10:00 -17°C° 0 mm 1 mps 608 mmHg 56%
    11:00 -16°C° 0 mm 1 mps 608 mmHg 54%
    12:00 -16°C° 0 mm 1 mps 608 mmHg 52%
    13:00 -15°C° 0 mm 1 mps 608 mmHg 50%
    14:00 -16°C° 0 mm 1 mps 607 mmHg 56%
    15:00 -18°C° 0 mm 0 mps 607 mmHg 62%
    16:00 -19°C° 0 mm 0 mps 606 mmHg 68%
    17:00 -20°C° 0 mm 1 mps 606 mmHg 71%
    18:00 -20°C° 0 mm 1 mps 606 mmHg 73%
    19:00 -24°C° 0 mm 2 mps 606 mmHg 76%
    20:00 -24°C° 0 mm 2 mps 607 mmHg 75%
    21:00 -24°C° 0 mm 2 mps 607 mmHg 75%
    22:00 -24°C° 0 mm 2 mps 607 mmHg 75%
    23:00 -24°C° 0 mm 2 mps 607 mmHg 73%

    Tomorrow, 15 November, Thursday

    Time Temperature Precipitation Wind Pressure Humidity
    00:00 -24°C° 0 mm 2 mps 607 mmHg 72%
    01:00 -24°C° 0 mm 2 mps 607 mmHg 70%
    02:00 -24°C° 0 mm 2 mps 607 mmHg 70%
    03:00 -24°C° 0 mm 2 mps 607 mmHg 69%
    04:00 -24°C° 0 mm 2 mps 607 mmHg 69%
    05:00 -24°C° 0 mm 2 mps 606 mmHg 70%
    06:00 -24°C° 0 mm 2 mps 606 mmHg 70%
    07:00 -24°C° 0 mm 2 mps 606 mmHg 71%
    08:00 -21°C° 0 mm 2 mps 607 mmHg 69%
    09:00 -19°C° 0 mm 2 mps 608 mmHg 66%
    10:00 -17°C° 0 mm 2 mps 608 mmHg 63%
    11:00 -16°C° 0 mm 2 mps 608 mmHg 61%
    12:00 -15°C° 0 mm 2 mps 608 mmHg 59%
    13:00 -11°C° 0 mm 1 mps 608 mmHg 57%
    14:00 -12°C° 0 mm 1 mps 607 mmHg 63%
    15:00 -16°C° 0 mm 2 mps 606 mmHg 69%
    16:00 -17°C° 0 mm 2 mps 606 mmHg 74%
    17:00 -17°C° 0 mm 2 mps 605 mmHg 76%
    18:00 -18°C° 0 mm 2 mps 605 mmHg 78%
    19:00 -21°C° 0 mm 3 mps 604 mmHg 80%
    20:00 -21°C° 0 mm 3 mps 604 mmHg 79%
    21:00 -21°C° 0 mm 3 mps 604 mmHg 78%
    22:00 -21°C° 0 mm 3 mps 604 mmHg 78%
    23:00 -19°C° 0 mm 2 mps 604 mmHg 76%

    Day after tomorrow, 16 November, Friday

    Time Temperature Precipitation Wind Pressure Humidity
    00:00 -18°C° 0 mm 2 mps 604 mmHg 75%
    01:00 -18°C° 0 mm 2 mps 604 mmHg 74%
    02:00 -17°C° 0 mm 2 mps 604 mmHg 74%
    03:00 -17°C° 0 mm 2 mps 604 mmHg 73%
    04:00 -16°C° 0 mm 2 mps 604 mmHg 73%
    05:00 -17°C° 0 mm 2 mps 604 mmHg 74%
    06:00 -17°C° 0 mm 2 mps 604 mmHg 75%
    07:00 -17°C° 0 mm 2 mps 604 mmHg 76%
    08:00 -15°C° 0 mm 2 mps 604 mmHg 73%
    09:00 -14°C° 0 mm 2 mps 605 mmHg 71%
    10:00 -11°C° 0 mm 1 mps 605 mmHg 68%
    11:00 -12°C° 0 mm 2 mps 605 mmHg 64%
    12:00 -10°C° 0 mm 2 mps 605 mmHg 60%
    13:00 -10°C° 0 mm 2 mps 605 mmHg 56%
    14:00 -10°C° 0 mm 1 mps 604 mmHg 62%
    15:00 -11°C° 0 mm 1 mps 604 mmHg 68%
    16:00 -12°C° 0 mm 1 mps 603 mmHg 73%
    17:00 -13°C° 0 mm 1 mps 603 mmHg 76%
    18:00 -13°C° 0 mm 1 mps 603 mmHg 79%
    19:00 -14°C° 0 mm 1 mps 603 mmHg 81%
    20:00 -14°C° 0.1 mm 1 mps 603 mmHg 83%
    21:00 -15°C° 0.1 mm 1 mps 603 mmHg 85%
    22:00 -15°C° 0.1 mm 1 mps 604 mmHg 86%
    23:00 -18°C° 0.3 mm 2 mps 604 mmHg 88%

    17 November, Saturday

    Time Temperature Precipitation Wind Pressure Humidity
    00:00 -19°C° 0.3 mm 2 mps 604 mmHg 90%
    01:00 -21°C° 0.3 mm 3 mps 604 mmHg 91%
    02:00 -20°C° 0.1 mm 2 mps 604 mmHg 92%
    03:00 -21°C° 0.1 mm 2 mps 604 mmHg 93%
    04:00 -23°C° 0.1 mm 2 mps 604 mmHg 94%
    05:00 -21°C° 0 mm 1 mps 603 mmHg 94%
    06:00 -22°C° 0 mm 1 mps 603 mmHg 95%
    07:00 -23°C° 0 mm 1 mps 603 mmHg 95%
    08:00 -22°C° 0 mm 1 mps 604 mmHg 90%
    09:00 -21°C° 0 mm 1 mps 604 mmHg 85%
    10:00 -20°C° 0 mm 1 mps 605 mmHg 80%
    11:00 -19°C° 0 mm 1 mps 605 mmHg 77%
    12:00 -18°C° 0 mm 1 mps 604 mmHg 75%
    13:00 -18°C° 0 mm 1 mps 604 mmHg 72%
    14:00 -19°C° 0 mm 1 mps 604 mmHg 78%
    15:00 -20°C° 0 mm 1 mps 603 mmHg 83%
    16:00 -21°C° 0 mm 1 mps 603 mmHg 89%
    17:00 -21°C° 0 mm 1 mps 603 mmHg 91%
    18:00 -22°C° 0 mm 1 mps 602 mmHg 93%
    19:00 -23°C° 0 mm 1 mps 602 mmHg 95%
    20:00 -23°C° 0 mm 1 mps 602 mmHg 95%
    21:00 -23°C° 0 mm 1 mps 602 mmHg 95%
    22:00 -23°C° 0 mm 1 mps 602 mmHg 95%
    23:00 -24°C° 0 mm 1 mps 602 mmHg 95%

    18 November, Sunday

    Time Temperature Precipitation Wind Pressure Humidity
    00:00 -24°C° 0 mm 1 mps 602 mmHg 95%
    01:00 -24°C° 0 mm 1 mps 601 mmHg 94%
    02:00 -24°C° 0 mm 1 mps 601 mmHg 94%
    03:00 -25°C° 0 mm 1 mps 601 mmHg 93%
    04:00 -25°C° 0 mm 1 mps 601 mmHg 93%
    05:00 -25°C° 0 mm 1 mps 601 mmHg 92%
    06:00 -25°C° 0 mm 1 mps 601 mmHg 91%
    07:00 -25°C° 0 mm 1 mps 601 mmHg 90%
    08:00 -23°C° 0 mm 1 mps 602 mmHg 83%
    09:00 -21°C° 0 mm 1 mps 603 mmHg 77%
    10:00 -20°C° 0 mm 1 mps 603 mmHg 70%
    11:00 -19°C° 0 mm 1 mps 604 mmHg 66%
    12:00 -17°C° 0 mm 0 mps 604 mmHg 62%
    13:00 -16°C° 0 mm 0 mps 604 mmHg 57%
    14:00 -17°C° 0 mm 1 mps 603 mmHg 62%
    15:00 -19°C° 0 mm 1 mps 602 mmHg 67%
    16:00 -20°C° 0 mm 1 mps 602 mmHg 72%
    17:00 -20°C° 0 mm 1 mps 601 mmHg 74%
    18:00 -24°C° 0 mm 2 mps 601 mmHg 77%
    19:00 -24°C° 0 mm 2 mps 601 mmHg 79%
    20:00 -24°C° 0 mm 2 mps 601 mmHg 80%
    21:00 -24°C° 0 mm 2 mps 601 mmHg 80%
    22:00 -24°C° 0 mm 2 mps 601 mmHg 80%
    23:00 -24°C° 0 mm 2 mps 601 mmHg 80%

    19 November, Monday

    Time Temperature Precipitation Wind Pressure Humidity
    00:00 -24°C° 0 mm 2 mps 600 mmHg 80%
    01:00 -24°C° 0 mm 2 mps 600 mmHg 80%
    02:00 -25°C° 0 mm 2 mps 600 mmHg 80%
    03:00 -25°C° 0 mm 2 mps 600 mmHg 79%
    04:00 -25°C° 0 mm 2 mps 600 mmHg 78%
    05:00 -24°C° 0 mm 2 mps 600 mmHg 77%
    06:00 -24°C° 0 mm 2 mps 600 mmHg 76%
    07:00 -24°C° 0 mm 2 mps 600 mmHg 75%
    08:00 -19°C° 0 mm 1 mps 601 mmHg 71%
    09:00 -18°C° 0 mm 1 mps 602 mmHg 67%
    10:00 -16°C° 0 mm 1 mps 603 mmHg 63%
    11:00 -15°C° 0 mm 1 mps 603 mmHg 60%
    12:00 -13°C° 0 mm 1 mps 603 mmHg 56%
    13:00 -12°C° 0 mm 0 mps 603 mmHg 53%
    14:00 -14°C° 0 mm 1 mps 602 mmHg 59%
    15:00 -15°C° 0 mm 1 mps 602 mmHg 66%
    16:00 -17°C° 0 mm 1 mps 601 mmHg 72%
    17:00 -17°C° 0 mm 1 mps 601 mmHg 75%
    18:00 -20°C° 0 mm 2 mps 601 mmHg 77%
    19:00 -21°C° 0 mm 2 mps 600 mmHg 80%
    20:00 -21°C° 0 mm 2 mps 600 mmHg 81%
    21:00 -21°C° 0 mm 2 mps 600 mmHg 81%
    22:00 -21°C° 0 mm 2 mps 600 mmHg 81%
    23:00 -21°C° 0 mm 2 mps 600 mmHg 81%
    Show more